| time (UTC) | temp F | wind direction | speed knots | gust knots | rain 1hr in | rain 24hr in | rain mn in | humidity % | barometer mb |
| 20260502211538 | 97 | 127 | 1.7 | 5.2 | 0.00 | 0.00 | 0.00 | 9 | 1009.9 |
| 20260502210039 | 98 | 52 | 1.7 | 5.2 | 0.00 | 0.00 | 0.00 | 9 | 1010.1 |
| 20260502204539 | 97 | 86 | 0.9 | 4.3 | 0.00 | 0.00 | 0.00 | 9 | 1010.4 |
| 20260502203034 | 96 | 63 | 1.7 | 7.8 | 0.00 | 0.00 | 0.00 | 9 | 1010.4 |
| 20260502201545 | 98 | 347 | 0.0 | 6.1 | 0.00 | 0.00 | 0.00 | 8 | 1010.7 |
| 20260502200036 | 96 | 111 | 0.0 | 5.2 | 0.00 | 0.00 | 0.00 | 8 | 1010.9 |
| 20260502194534 | 96 | 104 | 0.9 | 5.2 | 0.00 | 0.00 | 0.00 | 8 | 1011.1 |
| 20260502193035 | 97 | 82 | 0.9 | 3.5 | 0.00 | 0.00 | 0.00 | 8 | 1011.4 |
| 20260502191544 | 96 | 0 | 0.9 | 4.3 | 0.00 | 0.00 | 0.00 | 8 | 1011.4 |
| 20260502190037 | 96 | 8 | 0.9 | 5.2 | 0.00 | 0.00 | 0.00 | 8 | 1011.4 |
| 20260502184545 | 95 | 6 | 1.7 | 4.3 | 0.00 | 0.00 | 0.00 | 8 | 1011.6 |
| 20260502183037 | 94 | 57 | 0.9 | 4.3 | 0.00 | 0.00 | 0.00 | 9 | 1011.8 |
| 20260502181540 | 95 | 138 | 0.9 | 6.1 | 0.00 | 0.00 | 0.00 | 9 | 1012.0 |
| 20260502163037 | 89 | 77 | 0.0 | 1.7 | 0.00 | 0.00 | 0.00 | 16 | 1012.3 |
| 20260502161535 | 88 | 0 | 0.0 | 1.7 | 0.00 | 0.00 | 0.00 | 17 | 1012.3 |
| 20260502151535 | 85 | 0 | 0.0 | 0.9 | 0.00 | 0.00 | 0.00 | 20 | 1012.1 |
| 20260502123043 | 74 | 0 | 0.0 | 2.6 | 0.00 | 0.00 | 0.00 | 26 | 1010.8 |
| 20260502121540 | 75 | 206 | 0.0 | 2.6 | 0.00 | 0.00 | 0.00 | 26 | 1010.8 |
| 20260502114537 | 78 | 216 | 6.1 | 8.7 | 0.00 | 0.00 | 0.00 | 22 | 1010.4 |
| 20260502113038 | 77 | 216 | 3.5 | 7.0 | 0.00 | 0.00 | 0.00 | 22 | 1010.6 |
| 20260502111538 | 78 | 253 | 4.3 | 9.6 | 0.00 | 0.00 | 0.00 | 22 | 1010.5 |
| 20260502110036 | 78 | 231 | 5.2 | 8.7 | 0.00 | 0.00 | 0.00 | 22 | 1010.5 |
| 20260502104540 | 78 | 215 | 3.5 | 6.1 | 0.00 | 0.00 | 0.00 | 22 | 1010.4 |
| 20260502103038 | 78 | 206 | 4.3 | 7.0 | 0.00 | 0.00 | 0.00 | 22 | 1010.3 |
| 20260502101537 | 78 | 214 | 5.2 | 7.8 | 0.00 | 0.00 | 0.00 | 23 | 1010.3 |
| 20260502071536 | 81 | 207 | 3.5 | 9.6 | 0.00 | 0.00 | 0.00 | 22 | 1010.6 |
| 20260502070035 | 80 | 205 | 4.3 | 9.6 | 0.00 | 0.00 | 0.00 | 23 | 1010.5 |
| 20260502064534 | 80 | 250 | 6.1 | 10.4 | 0.00 | 0.00 | 0.00 | 24 | 1010.7 |
| 20260502063035 | 80 | 233 | 5.2 | 9.6 | 0.00 | 0.00 | 0.00 | 25 | 1010.7 |
| 20260502061538 | 80 | 243 | 5.2 | 10.4 | 0.00 | 0.00 | 0.00 | 25 | 1010.7 |
| 20260502060035 | 80 | 238 | 6.1 | 11.3 | 0.00 | 0.00 | 0.00 | 26 | 1010.5 |
| 20260502054538 | 81 | 243 | 6.1 | 13.9 | 0.00 | 0.00 | 0.00 | 26 | 1010.4 |
| 20260502053036 | 81 | 250 | 4.3 | 11.3 | 0.00 | 0.00 | 0.00 | 26 | 1010.3 |
| 20260502051539 | 81 | 217 | 7.0 | 12.2 | 0.00 | 0.00 | 0.00 | 26 | 1010.4 |
| 20260502050039 | 81 | 224 | 7.8 | 13.9 | 0.00 | 0.00 | 0.00 | 26 | 1010.3 |
| 20260502044535 | 82 | 236 | 4.3 | 11.3 | 0.00 | 0.00 | 0.00 | 27 | 1010.1 |
| 20260502043037 | 82 | 216 | 7.0 | 14.8 | 0.00 | 0.00 | 0.00 | 27 | 1010.0 |
| 20260502041532 | 82 | 237 | 7.8 | 18.2 | 0.00 | 0.00 | 0.00 | 29 | 1009.7 |
| 20260502040035 | 82 | 225 | 11.3 | 17.4 | 0.00 | 0.00 | 0.00 | 30 | 1009.5 |
| 20260502034536 | 82 | 213 | 10.4 | 18.2 | 0.00 | 0.00 | 0.00 | 31 | 1009.3 |
| 20260502033044 | 83 | 223 | 9.6 | 16.5 | 0.00 | 0.00 | 0.00 | 29 | 1009.2 |
| 20260502031535 | 83 | 195 | 10.4 | 17.4 | 0.00 | 0.00 | 0.00 | 28 | 1008.9 |
| 20260502030039 | 83 | 238 | 7.8 | 17.4 | 0.00 | 0.00 | 0.00 | 29 | 1008.7 |
| 20260502024533 | 84 | 243 | 8.7 | 16.5 | 0.00 | 0.00 | 0.00 | 27 | 1008.5 |
| 20260502023032 | 85 | 213 | 9.6 | 16.5 | 0.00 | 0.00 | 0.00 | 26 | 1008.5 |
| 20260502021535 | 85 | 236 | 7.8 | 13.9 | 0.00 | 0.00 | 0.00 | 26 | 1008.2 |
| 20260502020035 | 86 | 240 | 7.8 | 13.0 | 0.00 | 0.00 | 0.00 | 27 | 1008.1 |
| 20260502014534 | 87 | 241 | 8.7 | 15.6 | 0.00 | 0.00 | 0.00 | 24 | 1007.9 |
| 20260502013037 | 88 | 250 | 7.8 | 14.8 | 0.00 | 0.00 | 0.00 | 22 | 1008.0 |
| 20260502011534 | 89 | 266 | 8.7 | 13.9 | 0.00 | 0.00 | 0.00 | 21 | 1008.0 |
| 20260502010040 | 90 | 278 | 7.8 | 13.9 | 0.00 | 0.00 | 0.00 | 21 | 1008.0 |
| 20260502004550 | 90 | 275 | 9.6 | 14.8 | 0.00 | 0.00 | 0.00 | 20 | 1007.8 |
| 20260502003034 | 92 | 281 | 7.0 | 12.2 | 0.00 | 0.00 | 0.00 | 20 | 1007.8 |
| 20260502001532 | 93 | 26 | 3.5 | 12.2 | 0.00 | 0.00 | 0.00 | 16 | 1007.9 |
| 20260502000050 | 95 | 248 | 3.5 | 7.0 | 0.00 | 0.00 | 0.00 | 16 | 1007.7 |
| 20260501234537 | 96 | 101 | 0.0 | 4.3 | 0.00 | 0.00 | 0.00 | 15 | 1008.1 |
| 20260501233040 | 94 | 89 | 0.0 | 3.5 | 0.00 | 0.00 | 0.00 | 12 | 1008.0 |
| 20260501231540 | 92 | 104 | 0.0 | 1.7 | 0.00 | 0.00 | 0.00 | 13 | 1008.2 |
| 20260501230034 | 92 | 95 | 0.9 | 3.5 | 0.00 | 0.00 | 0.00 | 13 | 1008.3 |
| 20260501224534 | 92 | 96 | 0.0 | 2.6 | 0.00 | 0.00 | 0.00 | 13 | 1008.4 |
| 20260501223038 | 94 | 89 | 0.9 | 4.3 | 0.00 | 0.00 | 0.00 | 12 | 1008.7 |
| 20260501221536 | 92 | 0 | 0.9 | 4.3 | 0.00 | 0.00 | 0.00 | 13 | 1008.9 |
| 20260501220049 | 93 | 0 | 0.9 | 5.2 | 0.00 | 0.00 | 0.00 | 13 | 1009.0 |
| 20260501214534 | 97 | 0 | 0.9 | 3.5 | 0.00 | 0.00 | 0.00 | 11 | 1009.4 |
| 20260501213051 | 96 | 42 | 0.9 | 2.6 | 0.00 | 0.00 | 0.00 | 12 | 1009.5 |